GFSSGP_850_thetae_024.txt.gz
Theta_e
313 313 321 325 331 330 334 335 334 340 338 336 334 334 334 333 332 335 337 336 336 329 325 324 323 324 320 319 318 318 317 317 318 317 316 316 316 315 315 313 312 316 316 314 312 312 311 312 316
312 320 326 329 331 334 333 334 335 337 338 335 335 335 334 334 332 337 338 337 337 329 325 324 322 322 319 319 319 318 318 318 318 318 316 316 315 315 315 316 316 322 320 318 322 321 320 316 319
320 322 328 330 335 335 335 338 337 339 338 336 333 333 332 333 333 335 338 337 336 333 326 325 323 320 320 319 319 319 318 318 318 317 316 315 315 315 316 318 321 324 325 324 323 325 325 327 329
323 326 327 335 338 335 334 339 338 339 337 336 333 333 333 333 333 333 335 336 337 337 332 326 324 320 320 320 320 319 319 318 318 318 317 316 315 316 318 324 327 326 325 329 330 330 330 327 329
326 327 331 331 332 333 333 335 334 338 338 336 335 334 333 333 332 333 335 336 336 336 336 331 324 324 321 321 320 320 319 319 319 319 319 318 316 317 326 330 331 329 324 324 328 329 330 332 330
326 329 332 334 334 333 332 331 332 332 332 332 334 334 333 333 333 333 334 335 336 335 335 335 333 325 324 322 322 321 320 320 320 320 320 320 319 316 321 330 334 333 324 324 323 325 327 329 327
326 331 333 333 333 333 331 332 332 332 331 332 333 333 332 333 333 332 333 334 335 336 336 335 335 333 326 324 323 322 321 321 321 320 320 320 320 318 319 324 328 323 322 323 322 322 322 322 322
325 329 332 334 335 333 332 332 332 331 331 332 332 333 333 332 331 331 331 330 331 336 337 336 336 336 335 325 323 323 323 322 322 322 322 321 321 320 321 328 331 333 331 329 324 318 316 316 317
324 327 331 332 333 333 332 332 332 332 332 331 331 331 331 330 331 331 332 331 331 330 335 337 338 337 338 328 324 323 324 323 321 323 323 322 321 321 322 332 334 334 332 329 325 317 318 318 317
326 328 329 330 331 332 332 332 332 333 332 332 332 332 331 331 331 331 331 331 330 329 329 336 338 339 337 340 327 325 324 324 323 323 324 323 324 327 330 335 333 332 331 330 329 323 326 324 318
329 329 328 330 331 332 332 333 333 333 334 332 333 332 332 331 331 331 330 329 329 329 329 331 337 338 338 340 343 337 330 326 324 323 324 325 332 334 334 335 335 332 332 331 330 330 329 330 330
330 330 329 329 330 331 333 332 333 332 333 332 332 333 332 331 331 330 330 329 329 329 329 331 336 337 338 339 343 340 339 337 330 325 327 336 335 327 326 332 332 333 332 331 330 330 331 330 331
328 329 330 330 331 331 331 332 332 332 331 331 331 331 332 331 331 330 330 328 328 328 328 331 336 336 337 338 342 341 340 343 339 338 339 339 333 327 334 335 334 333 332 332 331 329 329 329 328
328 327 328 328 329 330 331 331 330 330 329 330 331 331 331 331 330 330 330 328 328 327 328 331 335 336 336 337 339 341 340 342 340 339 339 336 332 328 335 334 333 332 331 330 332 331 330 328 328
325 328 329 330 328 330 329 331 332 330 329 329 330 330 330 330 330 329 329 328 329 328 328 331 333 336 336 336 339 340 340 341 339 338 336 334 332 330 332 334 334 333 331 331 330 331 330 328 328
325 326 329 329 330 330 330 332 332 330 329 329 329 330 330 330 329 328 328 328 328 328 328 331 332 335 338 337 340 339 343 341 338 336 334 332 333 331 330 333 333 332 334 331 329 329 329 329 327
325 328 328 329 329 329 330 331 331 330 329 330 330 330 330 330 329 328 328 328 327 329 328 329 332 336 340 341 342 341 344 341 338 334 333 333 334 333 330 331 331 332 332 329 329 329 328 328 327
325 326 327 329 328 329 330 331 331 330 329 330 331 330 328 328 330 328 328 328 329 329 329 331 333 336 341 342 344 344 343 341 336 332 332 334 334 335 334 333 331 332 332 330 329 329 328 327 328
323 325 325 327 328 329 330 330 330 331 329 331 330 328 328 329 331 329 327 327 329 331 331 334 336 338 342 345 345 345 343 338 334 332 333 333 334 334 334 330 332 332 330 329 329 329 327 326 328
319 322 324 326 326 328 329 330 331 331 331 330 331 330 329 329 328 329 328 328 334 332 332 333 337 339 341 345 344 343 339 335 333 332 333 333 334 332 333 333 331 331 330 329 328 328 327 326 325
320 321 324 324 325 326 328 329 330 330 330 329 328 328 328 328 327 327 328 329 334 333 333 336 339 340 342 343 343 339 335 334 333 333 334 333 332 331 330 331 329 329 328 327 327 327 326 325 323
321 320 321 322 324 327 326 329 331 331 330 329 329 328 329 328 328 328 329 335 335 335 335 338 339 341 341 342 338 335 333 333 333 332 331 334 335 334 332 330 329 328 328 327 326 326 325 325 324
320 320 321 322 323 326 325 328 328 329 328 328 329 328 328 328 328 329 329 336 337 337 337 339 340 340 340 336 334 333 333 332 333 333 331 330 330 331 329 328 327 326 326 326 325 324 325 325 325
320 320 320 322 324 326 326 327 328 328 328 328 330 329 329 329 328 328 335 338 338 338 339 340 339 338 336 334 335 333 331 333 332 331 332 333 332 329 327 328 328 328 326 325 325 325 325 324 324
319 323 323 324 324 326 325 326 328 328 328 329 331 330 329 328 329 336 338 338 338 338 339 339 337 337 334 335 333 335 333 332 332 333 333 331 331 329 326 327 329 327 327 326 326 326 327 326 326
319 323 323 323 324 325 324 327 327 328 329 329 327 328 328 331 336 338 337 337 337 338 339 338 338 336 335 334 332 334 334 331 334 332 332 332 332 328 328 328 325 327 329 329 329 327 327 326 326
319 319 322 324 324 324 326 327 328 329 329 330 327 328 332 333 336 337 336 336 337 338 337 337 337 336 334 333 334 334 333 334 332 331 327 330 328 327 327 327 328 330 330 329 328 326 326 326 326
318 320 321 324 325 328 327 328 329 331 332 330 329 332 335 336 336 336 336 337 337 337 337 336 335 334 334 332 334 333 333 334 332 332 331 329 328 331 328 327 327 327 327 327 327 326 326 325 325
318 319 321 324 324 327 328 328 335 333 331 331 332 330 336 336 336 336 336 336 337 336 336 336 335 334 332 333 333 333 330 331 333 331 331 328 328 328 329 329 328 329 328 327 326 329 326 322 323
318 319 321 324 326 326 327 329 332 333 330 333 333 333 336 336 335 335 336 336 336 336 336 335 334 332 333 332 332 331 334 332 332 331 329 327 328 328 328 329 329 329 328 325 331 326 326 322 324

GFSSGP_850_thetae_027.txt.gz
Theta_e
321 312 316 324 325 326 328 330 330 337 337 334 335 334 333 333 333 338 337 339 338 326 325 324 323 322 319 319 319 318 317 317 316 316 315 315 314 314 314 314 314 313 317 317 313 314 312 311 312
316 320 326 327 326 329 329 328 335 337 336 337 334 335 331 336 337 337 338 336 336 328 325 324 323 322 319 319 320 319 318 317 317 316 316 316 315 315 315 316 318 321 323 319 322 323 324 323 316
312 321 322 324 329 331 329 332 336 338 339 338 334 332 332 333 338 339 338 336 336 333 326 325 323 322 319 319 320 319 318 318 318 317 317 316 316 315 316 318 321 322 324 324 324 324 325 326 323
319 323 325 328 333 333 332 332 337 338 337 337 336 332 332 333 333 336 337 337 336 334 333 326 324 323 320 319 319 319 318 318 318 318 318 318 317 316 318 322 325 326 325 324 328 331 332 332 329
324 326 323 328 331 333 331 330 336 338 338 337 335 335 333 332 332 332 334 337 336 336 335 332 325 323 320 320 320 319 319 318 319 319 320 320 319 318 317 320 326 331 332 325 323 326 329 330 330
324 327 327 329 330 331 331 332 331 332 331 331 333 334 333 332 333 333 332 333 336 336 336 335 333 324 322 320 320 320 319 319 319 319 320 320 320 320 318 317 319 328 332 324 321 322 322 326 328
322 322 326 327 329 331 331 331 329 330 330 331 332 332 333 333 332 332 331 332 331 335 336 335 335 333 324 322 321 321 320 319 319 319 319 320 321 321 321 319 319 325 329 327 326 324 322 321 321
325 322 325 326 330 331 332 332 331 331 330 331 331 331 332 333 331 332 331 331 332 334 336 336 335 335 334 328 322 321 322 321 320 320 320 320 321 321 321 321 322 329 330 329 328 328 322 316 315
328 321 323 326 328 330 331 330 331 332 331 332 332 332 332 331 331 331 331 331 331 332 334 336 336 336 335 335 330 323 322 322 322 320 321 322 322 321 321 322 323 328 330 330 330 329 318 318 318
333 322 322 323 326 328 329 330 331 331 332 332 332 332 332 332 331 331 331 330 330 329 330 334 336 336 336 336 336 332 322 322 323 322 321 322 323 322 322 323 323 329 331 331 330 329 328 329 328
330 329 325 325 326 327 329 329 330 331 331 333 332 332 332 332 332 331 330 330 330 329 329 331 335 336 337 337 337 335 326 321 322 323 323 322 323 324 326 326 328 332 334 332 331 330 329 329 329
327 328 328 327 326 327 327 329 330 331 331 331 331 331 330 332 331 332 330 330 330 329 329 328 332 335 337 338 336 336 336 331 322 323 324 323 322 326 329 328 327 334 333 332 331 330 329 329 329
325 324 326 328 328 328 328 328 329 330 331 331 331 330 329 329 330 331 331 330 330 330 329 328 328 332 337 338 337 336 336 337 336 333 330 326 324 331 333 327 331 333 333 333 331 331 329 329 329
321 326 326 326 328 329 329 329 329 330 330 329 329 330 329 329 330 331 331 330 330 329 328 328 327 330 336 337 337 336 336 337 338 339 337 333 336 337 334 330 333 335 334 333 332 332 331 330 329
320 321 322 325 326 325 326 327 327 327 328 329 330 329 329 329 329 330 330 330 330 330 328 328 328 330 336 337 337 337 338 338 339 340 340 339 339 337 331 333 335 332 333 333 331 330 330 330 328
319 319 321 322 323 325 325 327 327 328 328 329 329 329 329 329 328 329 329 330 330 329 327 327 329 328 333 337 338 341 341 341 340 342 341 340 337 334 331 330 332 333 332 329 333 332 330 329 329
319 320 321 322 323 324 325 327 327 328 328 328 328 329 329 329 329 329 329 329 328 328 328 327 329 328 331 335 338 340 341 341 342 341 339 336 334 333 332 332 329 330 330 332 334 331 329 328 328
321 322 322 322 323 325 325 326 326 327 327 327 328 329 329 329 329 329 327 327 328 327 328 329 329 329 332 335 339 341 340 342 342 338 335 334 333 332 334 333 333 333 330 332 331 330 329 328 328
319 322 323 323 323 324 324 325 325 326 327 326 327 327 328 328 329 327 327 328 329 327 327 330 329 330 333 337 341 343 341 342 343 340 334 331 332 333 334 334 334 332 330 331 330 329 328 329 327
317 317 318 320 323 323 324 324 325 326 326 326 327 327 328 329 328 327 327 328 329 328 331 332 332 335 336 339 343 344 343 343 342 339 333 332 333 333 334 331 331 332 330 327 327 328 328 328 326
315 316 316 317 318 320 321 321 322 323 325 327 328 328 328 328 328 328 327 327 328 330 331 332 333 335 338 344 346 344 344 342 338 335 332 332 333 333 333 332 329 330 328 327 327 327 327 327 326
316 316 317 317 318 318 320 322 322 322 324 325 326 327 328 327 326 326 327 327 331 332 333 333 336 342 345 346 344 342 341 337 333 333 333 333 333 333 332 332 330 328 326 327 326 326 326 326 324
316 317 317 318 318 318 320 320 322 322 325 324 323 326 327 327 327 328 327 328 332 333 333 333 335 340 343 344 343 339 337 334 334 333 333 332 332 332 333 332 327 325 325 325 325 325 324 324 324
315 316 317 317 317 318 319 320 321 321 322 324 324 326 326 326 327 328 332 334 336 335 334 335 336 340 343 342 339 335 332 332 333 333 331 332 332 331 329 328 327 327 326 324 324 325 325 324 324
312 313 315 317 318 319 318 321 322 321 323 324 323 325 327 328 330 332 336 337 337 336 336 336 338 341 340 335 334 333 333 333 332 332 331 332 330 329 325 326 327 328 326 326 326 325 326 325 326
310 313 315 318 319 318 319 320 321 322 323 324 324 326 331 335 335 337 338 338 337 337 336 336 337 337 335 335 333 333 334 331 330 330 331 331 330 327 326 326 327 325 327 328 327 327 326 326 325
310 310 315 316 318 318 319 319 320 320 321 324 324 327 337 338 338 338 338 337 338 338 336 335 336 335 334 334 333 333 329 332 332 332 330 327 327 327 325 326 326 328 328 326 327 325 326 325 325
314 312 315 315 317 319 321 320 321 323 324 323 325 328 337 338 338 337 337 337 338 337 336 335 334 332 333 332 333 333 334 334 331 330 329 327 329 330 327 325 326 326 326 326 326 326 325 325 325
315 312 312 314 315 319 321 321 322 324 324 324 325 335 336 337 337 336 337 337 337 337 337 336 334 333 333 332 333 332 331 331 332 330 330 328 329 329 327 327 328 328 327 327 325 326 325 324 323
313 314 312 314 317 318 319 321 327 329 326 325 333 335 336 336 336 337 337 337 337 337 336 335 334 333 332 333 333 331 330 330 331 330 329 327 328 327 328 329 328 327 329 325 327 326 326 323 323

GFSSGP_850_thetae_030.txt.gz
Theta_e
318 314 312 324 324 325 326 329 327 334 334 337 336 332 332 332 333 335 332 331 329 325 325 325 324 322 320 319 320 320 319 318 318 318 317 317 316 315 315 315 317 317 317 317 314 313 313 312 311
319 312 324 327 324 327 327 326 327 335 337 337 336 333 336 337 337 336 335 336 329 325 325 325 324 322 320 319 320 320 319 318 318 318 318 318 317 317 316 316 318 320 323 323 321 323 322 323 323
317 322 322 323 325 326 327 329 335 337 336 336 336 335 334 337 337 336 336 336 336 328 325 324 323 322 320 319 320 320 319 318 318 318 318 318 319 318 318 317 319 320 321 322 322 323 324 325 324
313 321 324 324 329 328 330 330 332 337 336 335 335 335 332 337 337 336 336 336 335 334 328 325 324 323 321 320 320 320 319 319 319 319 319 319 320 320 319 318 318 322 324 321 321 327 331 332 332
322 326 321 324 327 330 330 332 331 336 337 334 335 335 332 334 334 335 335 336 335 334 334 333 327 323 322 320 320 320 320 319 319 319 320 320 320 321 320 319 317 319 327 329 323 322 324 330 331
324 323 324 325 326 328 328 330 329 336 337 337 335 333 332 333 332 332 333 334 335 332 333 334 333 326 323 321 320 320 320 320 319 319 319 320 320 321 321 320 318 317 322 325 323 322 322 322 323
320 319 323 326 328 329 329 331 329 329 330 330 333 331 332 333 332 332 331 331 332 334 334 334 334 333 325 322 320 320 320 320 319 319 319 320 320 320 320 320 320 318 324 327 327 327 326 322 320
323 319 323 323 326 327 330 329 330 329 330 331 331 330 332 332 332 332 331 331 332 334 334 335 335 335 331 326 323 320 320 320 320 319 319 319 319 320 320 320 321 321 326 327 328 328 327 324 318
327 321 321 322 325 326 328 327 330 330 331 331 331 331 331 332 332 332 331 333 334 333 333 334 334 335 335 331 329 324 321 320 320 320 319 320 320 320 321 321 321 323 327 329 329 329 327 319 318
330 325 322 321 324 324 324 326 328 329 329 330 331 331 332 332 331 330 331 330 330 330 330 333 335 335 335 335 333 330 325 322 321 321 320 320 320 321 322 322 323 325 328 331 331 330 329 328 328
331 332 326 324 323 324 324 325 326 327 327 330 331 331 331 331 331 331 331 331 330 330 330 330 331 334 335 335 335 334 331 326 323 322 321 321 321 321 322 323 325 326 330 333 333 330 329 329 328
327 330 332 330 328 326 325 325 325 326 327 329 330 330 331 330 330 329 329 330 331 330 330 329 329 330 333 335 335 335 335 335 329 323 322 322 322 321 321 324 326 325 330 333 332 331 330 329 329
319 325 327 327 328 327 327 326 326 326 327 328 329 330 330 329 329 329 329 330 331 330 330 329 329 328 329 333 335 336 336 337 334 328 323 322 323 322 321 324 329 325 331 332 331 331 331 330 329
316 317 321 324 324 324 325 327 328 328 329 329 329 328 328 328 329 329 329 329 329 330 330 329 329 328 327 330 332 334 337 338 337 335 327 324 325 324 323 328 332 328 332 334 333 332 331 331 330
315 315 317 318 320 323 325 325 326 327 327 326 326 327 328 328 328 328 328 329 328 329 330 329 329 327 327 328 331 334 336 337 338 339 338 338 337 331 330 335 331 330 334 334 333 332 331 330 331
318 316 318 319 319 320 322 324 326 326 326 326 326 327 327 327 328 328 328 328 328 328 329 329 328 327 328 329 330 331 334 337 338 339 339 340 339 337 337 335 331 330 334 333 333 332 331 331 330
315 320 318 319 320 321 321 323 323 325 325 325 326 326 327 327 328 328 329 329 328 328 329 328 327 327 328 328 328 331 336 338 340 340 340 341 340 339 336 333 332 331 329 330 329 330 332 331 329
318 319 319 319 320 321 321 322 323 323 324 324 324 325 326 326 327 327 328 329 328 328 328 328 327 328 329 329 329 335 339 342 342 342 342 341 339 336 333 332 333 331 330 331 330 329 329 329 328
316 318 320 320 320 321 322 322 322 323 324 323 324 325 325 327 327 327 327 328 329 327 328 328 328 327 329 329 333 337 342 343 343 342 341 336 335 333 332 333 332 332 333 331 329 327 326 327 328
313 314 316 316 317 320 321 321 322 322 323 323 324 324 325 326 326 327 327 329 328 328 328 328 327 327 329 330 334 341 344 344 342 340 339 336 334 332 333 332 333 331 331 330 330 327 327 326 328
313 313 315 316 316 316 315 316 317 318 319 320 322 323 325 326 327 328 328 328 327 327 327 327 327 328 331 332 337 342 344 343 343 341 339 338 332 332 333 333 333 331 329 329 328 327 327 327 327
313 314 315 314 315 315 317 316 316 317 318 319 320 323 324 324 324 325 327 328 328 327 329 330 331 332 335 337 342 344 343 343 342 341 337 334 332 332 332 332 331 332 329 326 325 325 326 327 326
311 313 315 315 315 314 315 316 317 318 319 320 320 321 322 324 325 326 326 326 327 329 330 333 334 335 339 343 345 345 343 342 338 332 332 332 333 333 332 331 331 329 325 324 324 324 324 324 324
309 313 313 313 313 314 315 315 316 316 318 320 320 322 323 323 324 325 325 326 329 331 334 335 336 343 345 345 344 342 339 335 334 333 334 333 332 332 332 330 328 327 325 324 323 324 324 324 324
307 308 311 313 314 317 315 316 317 317 317 318 319 320 323 324 324 326 329 329 332 335 336 335 338 343 344 344 341 337 337 333 332 333 333 331 331 331 329 326 326 326 326 324 324 324 325 324 325
306 306 310 313 316 316 316 316 316 317 318 319 320 321 322 322 326 331 333 334 336 337 336 337 340 342 342 340 337 333 332 333 332 332 332 331 331 329 326 325 326 325 324 325 326 326 326 326 326
310 307 308 310 313 315 316 316 317 318 318 318 318 321 328 334 335 336 337 337 337 337 336 338 341 340 337 334 333 333 333 332 332 330 329 329 326 326 325 326 325 327 327 327 326 326 326 325 325
311 311 309 308 313 314 316 318 318 318 318 318 317 330 336 337 337 338 338 338 337 337 337 337 338 336 334 333 332 333 329 329 331 331 329 327 326 325 325 325 326 326 326 325 326 326 325 325 325
309 312 309 309 310 315 316 317 317 318 317 318 318 333 336 337 337 338 338 337 337 336 335 336 335 334 333 332 331 329 331 331 330 329 329 327 328 328 326 327 328 328 327 325 325 325 324 325 324
311 310 311 311 310 313 314 316 317 318 318 322 325 334 335 336 337 337 337 337 336 334 335 334 333 332 330 330 330 330 330 330 330 329 329 327 328 327 328 329 328 327 327 324 326 327 326 324 323

GFSSGP_850_thetae_036.txt.gz
Theta_e
322 319 311 321 321 321 323 323 323 324 332 333 333 331 333 334 332 332 330 328 328 327 326 324 322 322 320 319 320 319 319 319 319 319 319 318 318 317 317 317 316 316 316 316 316 315 313 311 311
322 314 318 324 319 323 319 322 324 325 335 336 333 332 333 332 334 333 329 328 328 326 326 325 323 322 321 320 320 320 319 319 319 319 318 318 318 318 318 317 317 317 317 318 319 319 321 321 321
319 313 322 322 320 321 320 324 325 330 333 335 333 333 334 335 335 331 329 328 328 326 325 325 325 323 322 320 320 320 320 320 319 319 319 319 319 319 319 318 318 317 317 318 319 319 321 322 323
317 321 322 322 325 324 321 326 327 327 330 334 334 332 333 335 334 331 330 328 327 326 326 325 325 324 323 322 320 321 320 320 320 320 319 319 320 320 319 319 319 319 318 320 320 320 320 324 328
317 322 319 321 322 324 325 326 327 325 328 331 332 332 331 336 334 333 332 331 331 329 329 326 325 325 324 323 321 320 321 320 320 320 320 319 320 320 320 320 320 319 318 320 322 322 321 321 326
321 321 321 320 320 323 323 326 327 326 329 331 334 332 332 336 335 333 332 332 332 332 331 329 328 325 324 323 321 320 320 321 320 320 320 319 320 320 320 320 320 320 319 320 321 322 322 323 323
320 318 321 323 325 326 325 326 326 327 328 331 334 330 332 334 335 334 332 333 332 333 333 332 329 327 324 323 321 320 320 320 320 320 320 319 319 320 320 320 320 320 320 320 322 321 322 324 325
321 316 321 321 323 323 325 327 329 328 328 329 330 329 330 332 333 333 333 333 332 332 333 333 332 330 328 325 323 321 320 319 319 320 320 319 319 319 320 320 320 320 321 321 323 322 322 323 325
321 317 318 321 323 323 325 322 328 328 328 328 329 329 330 331 332 332 333 333 332 331 331 332 333 333 331 328 326 323 321 319 319 319 319 319 319 319 319 319 320 320 321 322 324 324 324 324 324
320 316 318 318 321 323 323 322 323 325 324 325 327 327 329 330 331 332 333 332 332 331 331 331 333 333 333 332 330 327 323 322 320 319 319 318 318 318 319 319 319 320 321 322 324 326 328 327 325
327 324 318 318 320 322 322 322 323 322 322 325 326 326 327 328 327 331 330 331 331 331 332 332 331 332 333 334 334 332 329 324 323 320 319 319 318 318 318 319 319 320 321 322 324 327 329 328 327
328 327 326 324 322 324 322 323 323 323 323 324 325 325 326 326 327 327 328 329 329 330 329 330 330 330 330 333 334 334 333 330 328 325 321 320 318 318 318 319 319 320 322 323 326 328 330 329 328
327 326 328 329 329 329 328 329 328 328 328 327 326 325 326 327 328 328 328 327 326 327 328 327 327 327 328 329 331 332 333 334 332 329 325 322 321 319 318 318 319 320 321 324 327 328 330 329 329
315 318 323 327 326 324 324 324 324 325 326 327 327 326 326 326 327 327 328 327 326 326 326 327 327 327 328 328 329 329 331 333 334 332 330 326 322 320 320 319 319 319 320 324 330 329 330 331 331
313 313 313 314 317 320 323 323 323 324 324 324 324 324 325 325 325 326 326 326 326 326 326 325 327 326 327 328 328 329 329 331 331 333 333 331 325 322 322 322 321 320 321 326 332 330 331 331 332
313 311 314 316 314 316 319 322 323 324 324 323 323 324 324 326 326 326 326 326 326 326 325 325 326 326 326 328 328 328 328 330 329 330 333 335 333 328 327 326 323 322 322 330 334 331 332 333 332
312 316 314 315 315 317 317 320 320 322 323 322 322 323 323 324 325 325 325 325 325 325 325 326 326 327 326 327 327 328 329 328 329 330 332 334 336 335 334 330 324 323 326 336 331 331 332 332 330
312 315 316 317 316 316 316 318 318 320 321 321 322 322 323 323 324 324 325 325 324 324 325 325 325 326 326 327 327 328 328 328 329 331 333 336 338 338 336 333 332 328 335 332 332 330 330 331 331
311 312 314 315 316 317 317 318 318 318 318 319 320 320 321 321 322 322 322 324 324 324 324 326 326 327 326 328 328 328 327 328 329 333 336 339 340 340 339 338 335 336 336 332 331 330 331 329 328
309 310 310 311 312 313 313 313 313 313 314 317 318 319 319 321 321 321 322 322 323 324 323 324 324 327 328 327 328 328 327 328 332 337 339 341 341 340 340 338 334 333 336 332 332 329 329 329 329
308 309 310 311 312 312 312 314 315 314 313 315 315 316 317 318 318 319 321 322 322 322 323 323 324 326 328 327 328 327 328 332 336 338 341 342 341 341 337 335 332 332 332 332 330 330 330 327 327
307 309 311 312 312 312 312 314 314 314 314 313 314 315 316 317 317 318 319 320 321 321 322 322 325 326 327 327 327 328 330 333 333 338 341 342 342 338 334 332 332 331 330 330 331 331 325 325 325
307 307 308 311 310 311 311 311 313 312 312 311 312 313 314 315 315 316 316 317 318 319 320 323 326 327 327 328 329 332 334 337 339 341 342 341 338 333 332 332 331 329 329 330 331 326 324 324 324
307 308 307 307 308 310 311 311 312 311 311 312 311 313 315 315 317 318 320 321 321 321 322 324 327 328 329 331 334 336 338 340 342 341 337 336 333 332 331 331 329 330 330 330 326 324 323 323 324
305 304 306 308 308 308 310 311 312 310 311 312 313 314 316 317 317 318 318 319 321 323 324 325 330 331 335 336 339 342 343 342 342 341 339 332 331 331 331 331 331 331 328 326 324 322 324 324 323
304 303 305 312 312 309 310 313 312 312 312 313 313 314 316 317 318 318 319 321 322 324 327 331 336 337 338 342 344 344 343 342 341 337 331 331 332 332 332 332 330 326 325 326 323 324 324 323 324
307 304 306 305 307 306 309 310 311 312 313 312 312 314 316 318 319 320 320 325 329 334 338 339 338 338 343 344 343 343 341 337 333 332 332 332 331 331 330 328 324 325 325 325 325 324 325 325 325
307 306 305 302 307 310 310 311 312 312 312 314 313 312 319 322 319 327 332 334 337 340 339 339 339 341 342 341 339 337 335 332 331 332 331 331 329 326 324 323 324 325 326 326 326 326 326 326 326
307 307 307 303 304 310 312 311 310 312 312 312 313 324 327 325 324 334 336 338 339 338 339 340 340 340 340 338 334 333 332 331 331 330 329 329 326 324 323 325 326 327 327 327 326 326 326 325 325
307 307 308 309 309 306 307 308 309 310 311 312 314 319 331 329 334 338 338 338 338 339 340 341 341 339 336 334 332 332 331 328 328 328 327 327 325 325 326 327 327 327 327 327 326 325 326 325 324